"2016-05-16 00:00:00",1637211,5.634,307.6,7.443,1.283,13.42,103.488,8.2,9.5,73.22,0,110.3,13.19,8.99,269.6
"2016-05-16 00:00:30",1637212,6.388,312.8,7.099,1.325,14.13,103.4846,8.2,9.49,73.45,0,110.3,13.19,8.98,274.8
"2016-05-16 00:01:00",1637213,6.447,314.2,7.096,1.364,14.09,103.4775,8.18,9.45,73.99,0,110.3,13.19,8.96,276.2
"2016-05-16 00:01:30",1637214,4.969,302.8,2.808,0.145,10.52,103.4677,8.15,9.25,74.27,0,110.3,13.23,8.93,264.8
"2016-05-16 00:02:00",1637215,4.452,303,3.85,0.238,10.35,103.4544,8.12,9.24,74.55,0,110.3,13.23,8.90,265.0
"2016-05-16 00:02:30",1637216,5.466,295.9,5.224,1.271,11.62,103.4541,8.12,9.26,74.63,0,110.3,13.19,8.90,257.9
"2016-05-16 00:03:00",1637217,6.16,304.7,7.8,1.34,13.47,103.4527,8.11,9.39,74.72,0,110.3,13.19,8.90,266.7
"2016-05-16 00:03:30",1637218,6.052,296.5,7.333,1.42,12.9,103.444,8.09,9.36,75.09,0,110.3,13.18,8.87,258.5
"2016-05-16 00:04:00",1637219,6.942,309.3,8.51,1.426,14.28,103.4326,8.06,9.4,75.44,0,110.3,13.18,8.84,271.3
"2016-05-16 00:04:30",1637220,6.996,310.1,7.907,1.323,13.6,103.4211,8.03,9.36,75.52,0,110.3,13.18,8.81,272.1
"2016-05-16 00:05:00",1637221,5.608,295.8,2.038,0.167,10.59,103.4202,8.03,9.14,75.15,0,110.3,13.23,8.81,257.8
"2016-05-16 00:05:30",1637222,6.518,306.3,8.24,1.279,11.91,103.4115,8.01,9.18,74.95,0,110.3,13.18,8.79,268.3
"2016-05-16 00:06:00",1637223,7.087,307,6.926,1.33,12.21,103.3988,7.977,9.22,74.99,0,110.3,13.18,8.76,269.0
"2016-05-16 00:06:30",1637224,8.44,311.1,7.316,1.407,14.43,103.3864,7.945,9.28,74.9,0,110.3,13.18,8.72,273.1
"2016-05-16 00:07:00",1637225,8.67,311.1,7.229,1.355,14.25,103.3864,7.945,9.29,74.91,0,110.3,13.18,8.72,273.1
"2016-05-16 00:07:30",1637226,8.82,312.2,7.522,1.335,14.51,103.3726,7.91,9.27,74.92,0,110.3,13.18,8.69,274.2
"2016-05-16 00:08:00",1637227,6.943,301.4,7.195,0.875,11.08,103.3528,7.859,8.99,74.65,0,110.3,13.18,8.64,263.4
"2016-05-16 00:08:30",1637228,7.861,301.8,7.926,1.347,12.15,103.3525,7.859,9.1,74.87,0,110.3,13.18,8.64,263.8
"2016-05-16 00:09:00",1637229,8.79,304.7,7.595,1.436,13.75,103.3477,7.846,9.15,75.12,0,110.3,13.18,8.63,266.7
"2016-05-16 00:09:30",1637230,8.31,303.5,5.287,1.471,12.27,103.3353,7.815,9.04,75.22,0,110.3,13.19,8.59,265.5
"2016-05-16 00:10:00",1637231,9.7,306.1,7.236,1.412,14.13,103.322,7.781,9.12,75.34,0,110.3,13.19,8.56,268.1
"2016-05-16 00:10:30",1637232,10.09,307.6,7.275,1.415,13.87,103.3186,7.772,9.14,75.38,0,110.3,13.19,8.55,269.6
"2016-05-16 00:11:00",1637233,10.28,307.4,7.745,1.331,14.43,103.3119,7.755,9.12,75.49,0,110.3,13.19,8.53,269.4
"2016-05-16 00:11:30",1637234,9.81,304.1,7.45,1.424,12.77,103.2992,7.722,9.02,75.61,0,110.3,13.19,8.50,266.1
"2016-05-16 00:12:00",1637235,9.97,305.3,7.748,1.32,12.48,103.2856,7.688,9,75.77,0,110.2,13.19,8.47,267.3
"2016-05-16 00:12:30",1637236,9.63,302,3.972,0.719,11.32,103.2848,7.685,8.9,75.79,0,110.3,13.19,8.46,264.0
"2016-05-16 00:13:00",1637237,11.41,308,7.205,1.305,14.22,103.2848,7.685,9.01,76.06,0,110.2,13.19,8.46,270.0
"2016-05-16 00:13:30",1637238,11.34,308.1,7.281,1.401,14.32,103.2789,7.67,9.01,76.09,0,110.2,13.2,8.45,270.1
"2016-05-16 00:14:00",1637239,12,312.9,6.365,1.274,14.75,103.2682,7.643,9,76.12,0,110.2,13.2,8.42,274.9
"2016-05-16 00:14:30",1637240,11.89,308.7,7.685,1.336,14.54,103.2572,7.615,9,76.36,0,110.2,13.2,8.39,270.7
"2016-05-16 00:15:00",1637241,12.23,309.1,7.372,1.392,13.89,103.2559,7.612,8.95,76.69,0,110.2,13.19,8.39,271.1
"2016-05-16 00:15:30",1637242,10.98,307.4,7.359,1.462,12.97,103.2579,7.617,8.8,76.93,0,110.2,13.19,8.40,269.4
"2016-05-16 00:16:00",1637243,10.62,302.9,6.153,1.161,12.04,103.2612,7.625,8.83,77.17,0,110.2,13.2,8.40,264.9
"2016-05-16 00:16:30",1637244,11.24,307.5,7.239,1.363,13.31,103.2525,7.603,8.87,77.29,0,110.2,13.2,8.38,269.5
"2016-05-16 00:17:00",1637245,11.2,305.7,6.717,1.367,14.29,103.2427,7.578,8.91,77.39,0,110.2,13.2,8.36,267.7
"2016-05-16 00:17:30",1637246,11.07,304.7,7.18,1.387,14.32,103.238,7.566,8.87,77.34,0,110.2,13.2,8.34,266.7
"2016-05-16 00:18:00",1637247,11.05,302.8,7.436,1.402,13.83,103.2395,7.57,8.85,77.33,0,110.2,13.2,8.35,264.8
"2016-05-16 00:18:30",1637248,10.82,303.7,7.393,1.413,13.83,103.2436,7.58,8.83,77.25,0,110.2,13.2,8.36,265.7
"2016-05-16 00:19:00",1637249,10.4,298.4,7.196,1.429,12.7,103.2442,7.582,8.78,77.21,0,110.1,13.2,8.36,260.4
"2016-05-16 00:19:30",1637250,10.01,295,5.39,1.077,11.6,103.2474,7.59,8.64,76.99,0,110.2,13.2,8.37,257.0
"2016-05-16 00:20:00",1637251,10.93,297.6,7.13,1.412,13.75,103.2403,7.572,8.78,77.17,0,110.2,13.2,8.35,259.6
"2016-05-16 00:20:30",1637252,11.52,297.7,7.136,1.369,13.79,103.2358,7.56,8.78,77.34,0,110.2,13.19,8.34,259.7
"2016-05-16 00:21:00",1637253,11.2,297.2,6.933,1.449,0.859,103.2319,7.55,8.83,77.5,0,110.2,13.19,8.33,259.2
"2016-05-16 00:21:30",1637254,11.66,297.9,6.442,1.268,13.88,103.2336,7.555,8.8,77.57,0,110.2,13.19,8.33,259.9
"2016-05-16 00:22:00",1637255,10.87,291.4,7.21,1.422,12.6,103.2277,7.54,8.65,77.55,0,110.2,13.19,8.32,253.4
"2016-05-16 00:22:30",1637256,10.98,293.1,7.015,1.391,11.77,103.2224,7.526,8.63,77.64,0,110.2,13.19,8.30,255.1
"2016-05-16 00:23:00",1637257,10.33,288.5,6.759,1.32,9.22,103.2193,7.518,8.65,77.75,0,110.2,13.19,8.30,250.5
"2016-05-16 00:23:30",1637258,10.2,287.7,7.288,1.421,12.82,103.2184,7.516,8.75,78.11,0,110.2,13.19,8.29,249.7
"2016-05-16 00:24:00",1637259,9.96,286.5,7.281,1.386,14.91,103.2181,7.515,8.71,78.35,0,110.2,13.2,8.29,248.5
"2016-05-16 00:24:30",1637260,9.12,281.8,7.713,1.485,14.91,103.2181,7.515,8.69,78.45,0,110.2,13.19,8.29,243.8
"2016-05-16 00:25:00",1637261,8.04,276.2,7.033,1.352,8.06,103.2181,7.515,8.61,78.4,0,110.2,13.18,8.29,238.2
"2016-05-16 00:25:30",1637262,7.655,270.7,6.537,1.308,8.61,103.2181,7.515,8.61,78.26,0,110.2,13.19,8.29,232.7
"2016-05-16 00:26:00",1637263,8.24,272.1,7.337,1.494,5.489,103.2181,7.515,8.76,78.27,0,110.2,13.2,8.29,234.1
"2016-05-16 00:26:30",1637264,8.15,264.2,7.289,1.663,-2.494,103.2181,7.515,8.77,78.22,0,110.2,13.2,8.29,226.2
"2016-05-16 00:27:00",1637265,7.009,256.5,7.458,1.448,15.13,103.2181,7.515,8.71,78.02,0,110.2,13.2,8.29,218.5
"2016-05-16 00:27:30",1637266,9.13,265.2,7.38,1.353,-3.578,103.2181,7.515,8.74,77.88,0,110.2,13.2,8.29,227.2
"2016-05-16 00:28:00",1637267,8.9,263.1,7.434,1.3,11.89,103.2181,7.515,8.77,78.11,0,110.2,13.2,8.29,225.1
"2016-05-16 00:28:30",1637268,10.29,270.7,7.074,1.493,-2.36,103.2181,7.515,8.74,78.27,0,110.2,13.2,8.29,232.7
"2016-05-16 00:29:00",1637269,11.28,273.6,6.7,1.496,-47.25,103.217,7.512,8.78,78.45,0,110.2,13.2,8.29,235.6
"2016-05-16 00:29:30",1637270,13.18,280.7,6.62,1.318,-42.16,103.2088,7.491,8.78,78.59,0,110.2,13.2,8.27,242.7
"2016-05-16 00:30:00",1637271,13.93,280.1,6.404,1.191,-54.78,103.1897,7.442,8.77,78.66,0,110.2,13.2,8.22,242.1
"2016-05-16 00:30:30",1637272,13.93,280.3,6.121,1.19,-55.14,103.1847,7.43,8.76,78.67,0,110.2,13.2,8.21,242.3
"2016-05-16 00:31:00",1637273,13.88,279.1,6.81,1.24,-55.4,103.1587,7.363,8.71,78.75,0,110.2,13.2,8.14,241.1
"2016-05-16 00:31:30",1637274,13.6,280.2,7.615,1.51,-52.5,103.1566,7.358,8.7,79.03,0,110.2,13.2,8.14,242.2
"2016-05-16 00:32:00",1637275,12.15,296.1,6.731,1.462,-39.48,103.1378,7.31,8.67,79.4,0,110.2,13.2,8.09,258.1
"2016-05-16 00:32:30",1637276,12.22,295,6.777,1.348,-52.73,103.1261,7.28,8.64,79.52,0,110.2,13.2,8.06,257.0
"2016-05-16 00:33:00",1637277,11.05,290.7,6.269,1.345,-35.32,103.1067,7.23,8.62,79.56,0,110.1,13.2,8.01,252.7
"2016-05-16 00:33:30",1637278,10.08,286.8,6.845,1.315,-32.62,103.0889,7.185,8.57,79.71,0,110.2,13.2,7.96,248.8
"2016-05-16 00:34:00",1637279,9.97,284.3,7.113,1.324,-9.73,103.0732,7.145,8.53,79.92,0,110.1,13.2,7.92,246.3
"2016-05-16 00:34:30",1637280,9.36,279.3,6.38,1.259,3.61,103.062,7.116,8.46,80.1,0,110.1,13.2,7.89,241.3
"2016-05-16 00:35:00",1637281,8.19,274.8,6.796,1.326,-25.45,103.0445,7.071,8.42,80.3,0,110.1,13.21,7.85,236.8
"2016-05-16 00:35:30",1637282,7.726,274.7,7.094,1.331,-55.28,103.0326,7.041,8.39,80.4,0,110.1,13.21,7.82,236.7
"2016-05-16 00:36:00",1637283,7.309,271.9,6.95,1.357,-56.7,103.0138,6.993,8.3,80.5,0,110.1,13.21,7.77,233.9
"2016-05-16 00:36:30",1637284,8.21,267.7,8.14,1.342,-52.75,103.0116,6.987,8.34,80.7,0,110.1,13.21,7.76,229.7
"2016-05-16 00:37:00",1637285,8.67,260.9,7.612,1.328,-50.23,102.9967,6.949,8.3,80.8,0,110.1,13.21,7.73,222.9
"2016-05-16 00:37:30",1637286,8.78,256.8,6.379,1.318,-53.03,102.9823,6.912,8.18,80.9,0,110.1,13.2,7.69,218.8
"2016-05-16 00:38:00",1637287,7.745,253.5,7.222,1.35,-37.35,102.9818,6.911,8.18,81,0,110.1,13.2,7.69,215.5
"2016-05-16 00:38:30",1637288,7.305,257.2,7.044,1.492,-33.86,102.971,6.884,8.2,81.1,0,110.1,13.2,7.66,219.2
"2016-05-16 00:39:00",1637289,7.519,252.4,7.314,1.339,-4.183,102.9634,6.864,8.21,81.3,0,110.1,13.2,7.64,214.4
"2016-05-16 00:39:30",1637290,6.852,254.8,7.595,1.281,5.65,102.9521,6.835,8.2,81.4,0,110.1,13.2,7.61,216.8
"2016-05-16 00:40:00",1637291,6.47,240.3,10.61,1.38,16.33,102.9484,6.826,8.2,81.5,0,110.1,13.2,7.60,202.3
"2016-05-16 00:40:30",1637292,4.753,242.6,13.49,1.369,17.09,102.9496,6.829,8.15,81.5,0,110.1,13.2,7.60,204.6
"2016-05-16 00:41:00",1637293,1.379,208.2,26.99,1.362,13.51,102.9583,6.851,7.984,81.2,0,110.1,13.21,7.63,170.2
"2016-05-16 00:41:30",1637294,0.326,127.9,20.83,0.418,12.44,102.969,6.878,7.878,81,0,110.1,13.25,7.65,89.9
"2016-05-16 00:42:00",1637295,1.438,136.7,12.09,0.412,12.85,102.9798,6.906,7.89,81,0,110.1,13.25,7.68,98.7
"2016-05-16 00:42:30",1637296,0.639,163.2,30.35,0.274,13.47,102.982,6.912,7.888,81,0,110.1,13.26,7.69,125.2
"2016-05-16 00:43:00",1637297,3.244,136.5,12.19,2.264,14.87,103.008,6.978,7.992,80.8,0,110.1,13.22,7.75,98.5
"2016-05-16 00:43:30",1637298,5.311,127.6,7.51,1.395,15.97,103.0182,7.004,8.11,80.5,0,110.1,13.22,7.78,89.6
"2016-05-16 00:44:00",1637299,5.844,135.1,11.48,1.426,18.07,103.0402,7.06,8.2,80.4,0,110.1,13.22,7.84,97.1
"2016-05-16 00:44:30",1637300,6.82,125.5,11.46,1.37,18.37,103.0535,7.094,8.23,80.2,0,110.1,13.22,7.87,87.5
"2016-05-16 00:45:00",1637301,4.433,128.6,11.73,1.376,15.97,103.0902,7.188,8.15,79.54,0,110.1,13.22,7.97,90.6
"2016-05-16 00:45:30",1637302,5.015,126.9,4.259,0.625,13.96,103.1267,7.281,8.08,78.85,0,110.1,13.27,8.06,88.9
"2016-05-16 00:46:00",1637303,5.018,125.1,2.956,0.635,9.32,103.1545,7.352,8.14,78.75,0,110.1,13.23,8.13,87.1
"2016-05-16 00:46:30",1637304,5.579,135.3,8.55,1.366,16.78,103.1672,7.385,8.4,78.93,0,110.1,13.23,8.16,97.3
"2016-05-16 00:47:00",1637305,5.099,130.8,8.97,1.407,15.7,103.1924,7.449,8.42,78.9,0,110.1,13.23,8.23,92.8
"2016-05-16 00:47:30",1637306,4.545,129.7,10.64,1.317,15.36,103.198,7.464,8.5,79,0,110.1,13.23,8.24,91.7
"2016-05-16 00:48:00",1637307,3.117,115.1,6.914,1.558,15.39,103.2459,7.586,8.52,78.46,0,110.1,13.23,8.36,77.1
"2016-05-16 00:48:30",1637308,1.302,75.82,16.92,1.026,13.48,103.3038,7.734,8.51,77.65,0,110.1,13.23,8.51,37.8
"2016-05-16 00:49:00",1637309,0.45,46.56,9.73,0.329,12.09,103.3557,7.867,8.5,77.06,0,110.1,13.28,8.65,8.6
"2016-05-16 00:49:30",1637310,-0.143,168.6,69.99,0.206,11.77,103.3741,7.914,8.58,76.73,0,110.1,13.28,8.69,130.6
"2016-05-16 00:50:00",1637311,2.132,295.4,30.78,1.677,12.26,103.3755,7.917,8.71,76.7,0,110.1,13.23,8.70,257.4
"2016-05-16 00:50:30",1637312,4.183,315.9,7.764,1.349,12.95,103.3552,7.865,8.88,77.26,0,110.1,13.23,8.64,277.9
"2016-05-16 00:51:00",1637313,4.821,317.3,7.16,1.362,12.63,103.3434,7.835,8.79,77.64,0,110.1,13.23,8.61,279.3
"2016-05-16 00:51:30",1637314,5.366,320.9,8.02,1.392,12.53,103.346,7.842,8.88,77.94,0,110.1,13.23,8.62,282.9
"2016-05-16 00:52:00",1637315,5.191,322,6.556,1.371,12.36,103.346,7.842,8.87,78.22,0,110.1,13.23,8.62,284.0
"2016-05-16 00:52:30",1637316,5.097,318.5,7.787,1.299,11.71,103.3466,7.843,8.81,78.37,0,110.1,13.23,8.62,280.5
"2016-05-16 00:53:00",1637317,4.896,312.6,6.162,1.264,12.41,103.3365,7.818,8.78,78.41,0,110.1,13.23,8.60,274.6
"2016-05-16 00:53:30",1637318,4.902,313.3,7.224,1.329,13.63,103.3164,7.766,8.9,78.4,0,110.1,13.22,8.55,275.3
"2016-05-16 00:54:00",1637319,4.337,311,5.964,1.282,12.83,103.3153,7.763,8.8,78.19,0,110.1,13.21,8.54,273.0
"2016-05-16 00:54:30",1637320,4.653,311.5,7.33,1.457,13.11,103.3055,7.738,8.79,78.09,0,110.1,13.21,8.52,273.5
"2016-05-16 00:55:00",1637321,4.52,310.9,7.745,1.35,13.11,103.2866,7.69,8.89,78.19,0,110.1,13.2,8.47,272.9
"2016-05-16 00:55:30",1637322,4.46,307.2,7.808,1.413,13.26,103.2867,7.69,8.76,78.13,0,110.1,13.2,8.47,269.2
"2016-05-16 00:56:00",1637323,2.936,302,2.042,0.128,10.9,103.2805,7.674,8.63,78.09,0,110.1,13.25,8.45,264.0
"2016-05-16 00:56:30",1637324,3.845,309.9,8.96,1.397,12.6,103.2632,7.63,8.73,78.3,0,110.1,13.2,8.41,271.9
"2016-05-16 00:57:00",1637325,4.022,318.3,6.707,1.344,13.03,103.2539,7.607,8.82,78.56,0,110.1,13.2,8.39,280.3
"2016-05-16 00:57:30",1637326,4.068,325.7,8.07,1.233,12.04,103.2542,7.607,8.67,78.61,0,110.1,13.2,8.39,287.7
"2016-05-16 00:58:00",1637327,5.327,337.1,7.187,1.534,13.28,103.2531,7.604,8.78,78.9,0,110.1,13.19,8.38,299.1
"2016-05-16 00:58:30",1637328,4.36,325.7,8.94,1.204,12.06,103.2345,7.557,8.69,78.97,0,110.1,13.2,8.34,287.7
"2016-05-16 00:59:00",1637329,5.039,332.1,9.88,1.765,12.77,103.2206,7.521,8.75,79.17,0,110,13.2,8.30,294.1
"2016-05-16 00:59:30",1637330,5.766,333.7,7.379,1.357,12.47,103.2203,7.521,8.67,79.14,0,110.1,13.2,8.30,295.7
"2016-05-16 01:00:00",1637331,5.262,336.7,7.83,1.51,12.94,103.2192,7.518,8.64,79.21,0,110.1,13.2,8.30,298.7
"2016-05-16 01:00:30",1637332,3.866,328.7,4.586,0.671,11.37,103.2079,7.489,8.6,79.23,0,110.1,13.2,8.27,290.7
"2016-05-16 01:01:00",1637333,4.329,331.3,6.691,1.352,12.74,103.1893,7.441,8.7,79.4,0,110.1,13.19,8.22,293.3
"2016-05-16 01:01:30",1637334,3.819,330,6.163,1.243,12.42,103.1864,7.434,8.58,79.34,0,110.1,13.19,8.21,292.0
"2016-05-16 01:02:00",1637335,3.615,329,6.04,1.242,12.73,103.1864,7.434,8.6,79.44,0,110.1,13.19,8.21,291.0
"2016-05-16 01:02:30",1637336,4.032,333.4,6.873,1.373,13.09,103.185,7.43,8.57,79.5,0,110.1,13.19,8.21,295.4
"2016-05-16 01:03:00",1637337,4.092,335.2,5.915,1.227,12.61,103.1765,7.409,8.63,79.64,0,110.1,13.18,8.19,297.2
"2016-05-16 01:03:30",1637338,5.284,342.1,7.642,1.385,13.31,103.1675,7.386,8.59,79.7,0,110.1,13.17,8.16,304.1
"2016-05-16 01:04:00",1637339,4.406,335.7,6.817,1.062,11.96,103.1681,7.387,8.45,79.67,0,110.1,13.17,8.17,297.7
"2016-05-16 01:04:30",1637340,4.38,337.1,6.759,1.271,12.39,103.163,7.374,8.57,79.88,0,110.1,13.17,8.15,299.1
"2016-05-16 01:05:00",1637341,4.617,338.4,5.891,1.243,11.94,103.1531,7.349,8.45,79.81,0,110.1,13.16,8.13,300.4
"2016-05-16 01:05:30",1637342,4.795,342.6,6.36,1.222,11.81,103.1525,7.347,8.44,79.87,0,110.1,13.16,8.13,304.6
"2016-05-16 01:06:00",1637343,5.874,350,7.226,1.341,14.2,103.1525,7.347,8.61,80.1,0,110.1,13.16,8.13,312.0
"2016-05-16 01:06:30",1637344,5.45,346.1,7.649,1.383,13.19,103.1525,7.347,8.6,80.1,0,110.1,13.15,8.13,308.1
"2016-05-16 01:07:00",1637345,5.296,340.9,8.01,1.288,12.26,103.1525,7.347,8.42,80,0,110.1,13.15,8.13,302.9
"2016-05-16 01:07:30",1637346,5.744,339.9,7.485,1.479,12.96,103.1508,7.343,8.47,80.1,0,110.1,13.15,8.12,301.9
"2016-05-16 01:08:00",1637347,4.754,337.5,7.182,1.263,11.85,103.1452,7.329,8.5,80.2,0,110.1,13.15,8.11,299.5
"2016-05-16 01:08:30",1637348,4.167,333.2,3.438,0.727,10.69,103.1415,7.319,8.35,80.1,0,110.1,13.14,8.10,295.2
"2016-05-16 01:09:00",1637349,5.597,340.9,9.28,1.623,12.95,103.1376,7.309,8.54,80.3,0,110.1,13.14,8.09,302.9
"2016-05-16 01:09:30",1637350,6.846,344.8,7.164,1.448,13.7,103.1356,7.304,8.58,80.5,0,110.1,13.14,8.08,306.8
"2016-05-16 01:10:00",1637351,6.598,343.3,7.744,1.518,13.58,103.1353,7.303,8.53,80.5,0,110.1,13.14,8.08,305.3
"2016-05-16 01:10:30",1637352,7.025,342.3,7.431,1.411,13.24,103.1342,7.3,8.49,80.5,0,110.1,13.14,8.08,304.3
"2016-05-16 01:11:00",1637353,6.53,343.1,6.505,1.322,12.04,103.1283,7.285,8.5,80.6,0,110.1,13.13,8.06,305.1
"2016-05-16 01:11:30",1637354,5.557,339.3,4.208,0.456,10.39,103.1212,7.267,8.34,80.4,0,110.1,13.17,8.04,301.3
"2016-05-16 01:12:00",1637355,7.132,344.1,7.946,1.512,13.16,103.1186,7.261,8.47,80.6,0,110.1,13.12,8.04,306.1
"2016-05-16 01:12:30",1637356,7.377,349.8,8.55,1.444,13.85,103.1186,7.261,8.54,80.7,0,110.1,13.12,8.04,311.8
"2016-05-16 01:13:00",1637357,6.593,348,8.58,1.389,13.35,103.1186,7.261,8.49,80.6,0,110.1,13.12,8.04,310.0
"2016-05-16 01:13:30",1637358,6.336,346,7.444,1.418,13.72,103.1186,7.261,8.53,80.7,0,110.1,13.11,8.04,308.0
"2016-05-16 01:14:00",1637359,6.166,341.6,7.332,1.469,12.83,103.1186,7.261,8.39,80.5,0,110.1,13.11,8.04,303.6
"2016-05-16 01:14:30",1637360,4.994,334.4,0.907,0.102,10.7,103.1186,7.261,8.28,80.5,0,110.1,13.16,8.04,296.4
"2016-05-16 01:15:00",1637361,5.147,336.7,4.635,1,11.51,103.1181,7.259,8.33,80.6,0,110.1,13.12,8.04,298.7
"2016-05-16 01:15:30",1637362,6.441,340.7,7.332,1.417,14.21,103.1136,7.248,8.48,80.8,0,110.1,13.12,8.03,302.7
"2016-05-16 01:16:00",1637363,6.229,339.7,7.259,1.453,14.66,103.1096,7.238,8.5,80.9,0,110.1,13.12,8.02,301.7
"2016-05-16 01:16:30",1637364,5.677,337.7,7.16,1.486,13.63,103.1071,7.231,8.4,80.8,0,110.1,13.12,8.01,299.7
"2016-05-16 01:17:00",1637365,5.901,342.7,7.671,1.455,13.99,103.1048,7.225,8.42,80.8,0,110.1,13.12,8.00,304.7
"2016-05-16 01:17:30",1637366,4.208,335.6,1.647,0.111,10.79,103.1079,7.233,8.25,80.7,0,110.1,13.17,8.01,297.6
"2016-05-16 01:18:00",1637367,4.262,335.8,2.341,0.144,10.78,103.104,7.223,8.24,80.7,0,110.1,13.17,8.00,297.8
"2016-05-16 01:18:30",1637368,5.24,341.3,7.922,1.399,13.51,103.1031,7.221,8.4,80.9,0,110.1,13.12,8.00,303.3
"2016-05-16 01:19:00",1637369,5.933,345.1,6.987,1.367,15.2,103.1034,7.222,8.51,81,0,110.1,13.12,8.00,307.1
"2016-05-16 01:19:30",1637370,5.762,342.2,7.485,1.404,14.3,103.1042,7.224,8.48,80.9,0,110.1,13.12,8.00,304.2
"2016-05-16 01:20:00",1637371,5.289,339.3,7.028,1.348,12.74,103.1102,7.239,8.35,80.8,0,110.1,13.12,8.02,301.3
"2016-05-16 01:20:30",1637372,4.887,340.6,6.702,1.24,12.79,103.1113,7.242,8.34,80.8,0,110.1,13.12,8.02,302.6
"2016-05-16 01:21:00",1637373,4.156,336.6,0.957,0.1,11.12,103.115,7.251,8.23,80.7,0,110.1,13.17,8.03,298.6
"2016-05-16 01:21:30",1637374,4.78,338.9,6.078,1.116,12.71,103.1175,7.258,8.34,80.8,0,110.1,13.12,8.04,300.9
"2016-05-16 01:22:00",1637375,5.149,341,7.445,1.4,13.57,103.1186,7.261,8.43,80.9,0,110.1,13.12,8.04,303.0
"2016-05-16 01:22:30",1637376,5.57,345.2,7.765,1.395,14.63,103.1186,7.261,8.49,80.9,0,110.1,13.12,8.04,307.2
"2016-05-16 01:23:00",1637377,5.111,342.4,8.32,1.54,13.6,103.1186,7.261,8.39,80.8,0,110.1,13.12,8.04,304.4
"2016-05-16 01:23:30",1637378,4.826,340.6,7.269,1.447,13.64,103.1186,7.261,8.45,80.8,0,110.1,13.12,8.04,302.6
"2016-05-16 01:24:00",1637379,3.476,333.1,1.29,0.067,11.23,103.1203,7.265,8.27,80.6,0,110.1,13.17,8.04,295.1
"2016-05-16 01:24:30",1637380,3.812,331.5,4.132,0.9,11.95,103.1291,7.287,8.27,80.6,0,110.1,13.12,8.07,293.5
"2016-05-16 01:25:00",1637381,4.261,333.3,7.465,1.284,13.01,103.1359,7.305,8.39,80.7,0,110.1,13.12,8.08,295.3
"2016-05-16 01:25:30",1637382,4.142,331.7,6.599,1.268,13,103.1432,7.324,8.38,80.6,0,110.1,13.12,8.10,293.7
"2016-05-16 01:26:00",1637383,4.335,332.2,7.674,1.37,13.22,103.1511,7.344,8.41,80.5,0,110.1,13.12,8.12,294.2
"2016-05-16 01:26:30",1637384,5.347,334.7,7.154,1.314,15.15,103.152,7.346,8.53,80.6,0,110.1,13.12,8.12,296.7
"2016-05-16 01:27:00",1637385,4.203,327.2,6.332,1.347,12.8,103.1531,7.349,8.47,80.5,0,110.1,13.12,8.13,289.2
"2016-05-16 01:27:30",1637386,3.839,324.4,5.886,1.145,12.18,103.1576,7.36,8.37,80.3,0,110.1,13.12,8.14,286.4
"2016-05-16 01:28:00",1637387,3.782,324.4,5.865,1.206,12.02,103.1675,7.386,8.36,80.2,0,110.1,13.11,8.16,286.4
"2016-05-16 01:28:30",1637388,4.232,329.9,6.827,1.4,13.56,103.1751,7.405,8.56,80.3,0,110.1,13.11,8.18,291.9
"2016-05-16 01:29:00",1637389,3.779,325.9,5.039,0.985,11.87,103.1853,7.431,8.37,80,0,110.1,13.11,8.21,287.9
"2016-05-16 01:29:30",1637390,4.143,327.6,7.104,1.235,12.81,103.1859,7.433,8.48,80.1,0,110.1,13.11,8.21,289.6
"2016-05-16 01:30:00",1637391,5.096,331.4,7.869,1.44,14.5,103.1829,7.425,8.53,80.1,0,110.1,13.11,8.20,293.4
"2016-05-16 01:30:30",1637392,4.126,328.7,7.548,1.363,13.09,103.1858,7.432,8.56,80,0,110.1,13.11,8.21,290.7
"2016-05-16 01:31:00",1637393,4.008,327.2,7.036,1.306,12.86,103.2022,7.474,8.47,79.87,0,110.1,13.11,8.25,289.2
"2016-05-16 01:31:30",1637394,3.902,324.5,6.413,1.239,12.31,103.2128,7.502,8.52,79.81,0,110.1,13.1,8.28,286.5
"2016-05-16 01:32:00",1637395,3.989,325.9,7.221,1.33,13.41,103.2133,7.503,8.61,79.8,0,110.1,13.1,8.28,287.9
"2016-05-16 01:32:30",1637396,3.617,328.5,6.271,1.215,12.37,103.2151,7.507,8.47,79.57,0,110.1,13.11,8.29,290.5
"2016-05-16 01:33:00",1637397,3.842,332.6,6.515,1.333,12.46,103.2157,7.509,8.51,79.5,0,110.1,13.11,8.29,294.6
"2016-05-16 01:33:30",1637398,4.24,334.3,6.795,1.376,13.69,103.2178,7.514,8.71,79.68,0,110.1,13.11,8.29,296.3
"2016-05-16 01:34:00",1637399,4.215,334.2,7.628,1.543,13.77,103.2353,7.559,8.68,79.64,0,110.1,13.11,8.34,296.2
"2016-05-16 01:34:30",1637400,3.964,333.8,7.01,1.368,13.49,103.2464,7.587,8.64,79.56,0,110.1,13.11,8.37,295.8
"2016-05-16 01:35:00",1637401,3.246,332.5,6.205,1.022,12.28,103.2449,7.583,8.63,79.46,0,110.1,13.12,8.36,294.5
"2016-05-16 01:35:30",1637402,4.023,335.7,7.541,1.415,13.32,103.2455,7.585,8.63,79.38,0,110.1,13.11,8.36,297.7
"2016-05-16 01:36:00",1637403,3.2,332.9,6.644,1.174,12.47,103.2508,7.599,8.66,79.29,0,110.1,13.12,8.38,294.9
"2016-05-16 01:36:30",1637404,2.483,325.8,1.772,0.089,11.08,103.2601,7.622,8.55,79.09,0,110.1,13.16,8.40,287.8
"2016-05-16 01:37:00",1637405,3.216,325.9,6.534,1.302,12.69,103.2649,7.635,8.68,79.09,0,110.1,13.12,8.41,287.9
"2016-05-16 01:37:30",1637406,3.374,328.9,8.42,1.397,13.69,103.2759,7.663,8.76,79.03,0,110.1,13.12,8.44,290.9
"2016-05-16 01:38:00",1637407,3.224,329.5,7.913,1.429,13.88,103.275,7.66,8.79,78.94,0,110.1,13.12,8.44,291.5
"2016-05-16 01:38:30",1637408,2.907,324.1,8.31,1.264,13.25,103.2732,7.656,8.66,78.68,0,110.1,13.12,8.43,286.1
"2016-05-16 01:39:00",1637409,3.236,322.7,6.953,1.391,13.53,103.2789,7.67,8.71,78.66,0,110.1,13.11,8.45,284.7
"2016-05-16 01:39:30",1637410,3.101,320.7,7.502,1.235,13.04,103.2867,7.69,8.76,78.59,0,110.1,13.12,8.47,282.7
"2016-05-16 01:40:00",1637411,2.311,315.8,0.768,0.028,11.57,103.2907,7.701,8.64,78.38,0,110.1,13.16,8.48,277.8
"2016-05-16 01:40:30",1637412,2.314,316.3,0.547,0.039,11.58,103.2983,7.72,8.65,78.28,0,110.1,13.16,8.50,278.3
"2016-05-16 01:41:00",1637413,3.09,320.7,6.606,1.318,13.11,103.3034,7.733,8.78,78.26,0,110.1,13.12,8.51,282.7
"2016-05-16 01:41:30",1637414,3.528,321.3,7.118,1.437,13.63,103.3039,7.734,8.85,78.2,0,110.1,13.12,8.51,283.3
"2016-05-16 01:42:00",1637415,3.693,323.6,7.479,1.48,14.44,103.3039,7.734,8.89,78.15,0,110.1,13.11,8.51,285.6
"2016-05-16 01:42:30",1637416,2.989,319.1,6.3,1.301,12.97,103.3039,7.734,8.82,77.96,0,110.1,13.11,8.51,281.1
"2016-05-16 01:43:00",1637417,3.84,323.1,7.051,1.432,14.42,103.3124,7.756,8.89,77.9,0,110.1,13.11,8.54,285.1
"2016-05-16 01:43:30",1637418,2.983,319.1,5.58,1.198,12.99,103.3185,7.772,8.83,77.77,0,110.1,13.11,8.55,281.1
"2016-05-16 01:44:00",1637419,2.272,318.6,1.258,0.047,11.44,103.3286,7.797,8.73,77.58,0,110.1,13.15,8.58,280.6
"2016-05-16 01:44:30",1637420,2.346,320.2,1.046,0.058,11.24,103.3317,7.805,8.76,77.49,0,110.1,13.15,8.58,282.2
"2016-05-16 01:45:00",1637421,2.305,320.6,1.362,0.056,11.71,103.3317,7.805,8.8,77.47,0,110.1,13.1,8.58,282.6
"2016-05-16 01:45:30",1637422,3.768,330.8,7.195,1.433,14.68,103.3302,7.802,8.99,77.52,0,110.1,13.1,8.58,292.8
"2016-05-16 01:46:00",1637423,3.717,334.9,7.945,1.422,14.54,103.3279,7.795,8.96,77.45,0,110.1,13.1,8.57,296.9
"2016-05-16 01:46:30",1637424,3.621,338.8,8.73,1.44,14.55,103.3388,7.824,9.01,77.49,0,110.1,13.1,8.60,300.8
"2016-05-16 01:47:00",1637425,2.934,343.8,7.3,1.312,13.28,103.3507,7.854,8.96,77.5,0,110.1,13.1,8.63,305.8
"2016-05-16 01:47:30",1637426,2.603,344.7,6.185,1.065,12.33,103.3571,7.87,8.88,77.51,0,110.1,13.1,8.65,306.7
"2016-05-16 01:48:00",1637427,2.212,343.3,2.208,0.051,10.85,103.3577,7.872,8.82,77.55,0,110.1,13.15,8.65,305.3
"2016-05-16 01:48:30",1637428,2.488,348,1.899,0.115,11.35,103.3583,7.873,8.85,77.55,0,110.1,13.15,8.65,310.0
"2016-05-16 01:49:00",1637429,2.703,348.8,1.747,0.061,11.66,103.3554,7.866,8.86,77.41,0,110.1,13.15,8.65,310.8
"2016-05-16 01:49:30",1637430,3.255,357.6,8.16,1.314,13.98,103.356,7.867,9.04,77.42,0,110.1,13.11,8.65,319.6